EW2593 Weather Reports


time (UTC)temp
C
wind
direction
speed
KPH
gust
KPH
rain 1hr
cm
rain 24hr
cm
rain mn
cm
humidity
%
barometer
mb
20260502123020 4 120 0.0 0.0 0.00 0.00 0.00 51 1014.0
20260502121521 3 120 0.0 0.0 0.00 0.00 0.00 52 1014.0
20260502114514 3 120 0.0 3.2 0.00 0.00 0.00 52 1014.0
20260502113100 3 120 1.6 4.8 0.00 0.00 0.00 52 1014.1
20260502111506 4 121 3.2 6.4 0.00 0.00 0.00 51 1014.0
20260502110020 5 121 0.0 0.0 0.00 0.00 0.00 48 1014.0
20260502104519 5 121 0.0 0.0 0.00 0.00 0.00 45 1014.1
20260502103105 6 121 0.0 0.0 0.00 0.00 0.00 45 1013.9
20260502101513 6 121 0.0 0.0 0.00 0.00 0.00 44 1013.9
20260502091522 7 121 0.0 0.0 0.00 0.00 0.00 41 1013.7
20260502071521 8 121 0.0 0.0 0.00 0.00 0.00 34 1013.7
20260502070056 9 121 0.0 3.2 0.00 0.00 0.00 33 1013.7
20260502064605 10 121 0.0 0.0 0.00 0.00 0.00 31 1013.7
20260502063005 11 121 0.0 0.0 0.00 0.00 0.00 28 1013.6
20260502061557 12 121 0.0 0.0 0.00 0.00 0.00 27 1013.5
20260502060004 12 121 0.0 1.6 0.00 0.00 0.00 26 1013.3
20260502054511 13 121 0.0 4.8 0.00 0.00 0.00 25 1013.2
20260502053016 13 109 0.0 9.7 0.00 0.00 0.00 25 1013.1
20260502051531 13 127 1.6 14.5 0.00 0.00 0.00 25 1013.0
20260502050027 13 87 0.0 1.6 0.00 0.00 0.00 25 1012.9
20260502044532 15 61 0.0 0.0 0.00 0.00 0.00 24 1012.8
20260502043027 15 61 0.0 3.2 0.00 0.00 0.00 23 1012.6
20260502041606 15 46 0.0 8.0 0.00 0.00 0.00 23 1012.4
20260502040015 16 52 1.6 12.9 0.00 0.00 0.00 22 1012.3
20260502034524 16 67 4.8 19.3 0.00 0.00 0.00 21 1012.2
20260502033111 16 360 8.0 22.5 0.00 0.00 0.00 21 1011.8
20260502031514 16 82 8.0 22.5 0.00 0.00 0.00 21 1011.3
20260502030104 17 69 3.2 17.7 0.00 0.00 0.00 21 1011.2
20260502024521 17 59 4.8 22.5 0.00 0.00 0.00 20 1010.9
20260502023006 18 49 8.0 30.6 0.00 0.00 0.00 17 1010.4
20260502021521 19 360 12.9 20.9 0.00 0.00 0.00 17 1010.0
20260502020010 20 360 12.9 25.7 0.00 0.00 0.00 16 1009.9
20260502014613 20 360 4.8 14.5 0.00 0.00 0.00 16 1009.7
20260502013012 20 88 4.8 11.3 0.00 0.00 0.00 17 1009.4
20260502011508 20 360 4.8 9.7 0.00 0.00 0.00 17 1009.4
20260502010018 20 360 1.6 9.7 0.00 0.00 0.00 17 1009.3
20260502004521 20 52 6.4 14.5 0.00 0.00 0.00 16 1009.2
20260502003006 20 64 8.0 17.7 0.00 0.00 0.00 16 1009.3
20260502001507 21 79 8.0 20.9 0.00 0.00 0.00 15 1009.2
20260502000026 21 44 6.4 16.1 0.00 0.00 0.00 16 1009.1
20260501234510 21 360 6.4 16.1 0.00 0.00 0.00 16 1009.2
20260501233101 21 360 3.2 12.9 0.00 0.00 0.00 16 1009.0
20260501231528 21 360 3.2 16.1 0.00 0.00 0.00 16 1009.2
20260501230017 22 311 3.2 16.1 0.00 0.00 0.00 15 1009.2
20260501224604 21 52 0.0 12.9 0.00 0.00 0.00 16 1009.2
20260501223023 21 46 0.0 9.7 0.00 0.00 0.00 16 1009.4
20260501221510 21 229 3.2 16.1 0.00 0.00 0.00 15 1009.7
20260501220009 22 290 4.8 17.7 0.00 0.00 0.00 16 1009.9
20260501214506 23 360 1.6 14.5 0.00 0.00 0.00 14 1010.0
20260501213006 23 360 8.0 20.9 0.00 0.00 0.00 15 1010.0
20260501211502 22 360 4.8 20.9 0.00 0.00 0.00 15 1010.1
20260501204523 23 294 6.4 16.1 0.00 0.00 0.00 14 1010.2
20260501203001 22 43 1.6 16.1 0.00 0.00 0.00 13 1010.2
20260501201503 22 111 1.6 17.7 0.00 0.00 0.00 14 1010.2
20260501200014 21 53 1.6 22.5 0.00 0.00 0.00 15 1010.3
20260501194604 21 315 4.8 9.7 0.00 0.00 0.00 15 1010.4
20260501193004 23 42 3.2 14.5 0.00 0.00 0.00 14 1010.5
20260501191524 22 288 3.2 11.3 0.00 0.00 0.00 16 1010.6
20260501190016 21 46 4.8 9.7 0.00 0.00 0.00 17 1010.8
20260501184525 20 26 1.6 6.4 0.00 0.00 0.00 17 1011.0
20260501183016 21 29 1.6 14.5 0.00 0.00 0.00 17 1011.2
20260501181521 21 306 4.8 9.7 0.00 0.00 0.00 17 1011.4
20260501180037 21 72 1.6 17.7 0.00 0.00 0.00 18 1011.6
20260501174511 21 139 0.0 9.7 0.00 0.00 0.00 18 1011.7
20260501173107 20 188 3.2 11.3 0.00 0.00 0.00 18 1011.8
20260501171616 20 165 3.2 12.9 0.00 0.00 0.00 19 1011.7
20260501170054 18 133 3.2 12.9 0.00 0.00 0.00 21 1011.7
20260501164512 18 144 1.6 8.0 0.00 0.00 0.00 21 1011.7
20260501163108 17 90 0.0 12.9 0.00 0.00 0.00 22 1011.6
20260501161611 16 154 1.6 12.9 0.00 0.00 0.00 25 1011.7
20260501160019 15 119 4.8 14.5 0.00 0.00 0.00 26 1011.6
20260501154524 13 82 3.2 12.9 0.00 0.00 0.00 29 1011.6
20260501153011 12 162 0.0 9.7 0.00 0.00 0.00 33 1011.4
20260501151514 10 163 0.0 3.2 0.00 0.00 0.00 35 1011.4
20260501150106 9 165 0.0 0.0 0.00 0.00 0.00 33 1011.3
20260501144508 8 165 0.0 3.2 0.00 0.00 0.00 35 1011.1
20260501143009 7 165 0.0 3.2 0.00 0.00 0.00 37 1011.0